MDT,Max TemperatureF,Mean TemperatureF,Min TemperatureF,Max Dew PointF,MeanDew PointF,Min DewpointF,Max Humidity, Mean Humidity, Min Humidity, Max Sea Level PressureIn, Mean Sea Level PressureIn, Min Sea Level PressureIn, Max VisibilityMiles, Mean VisibilityMiles, Min VisibilityMiles, Max Wind SpeedMPH, Mean Wind SpeedMPH, Max Gust SpeedMPH,PrecipitationIn, CloudCover, Events, WindDirDegrees
2014-8-1,93,79,64,58,54,48,68,48,23,30.10,30.02,29.96,10,10,9,17,9,24,0.01,1,Rain-Thunderstorm,60
2014-8-2,89,72,54,58,55,49,93,57,27,30.17,30.11,30.07,10,10,8,15,6,23,0.00,0,,75
2014-8-3,87,76,65,65,61,55,90,70,33,30.15,30.08,30.03,10,9,2,14,9,20,0.38,4,Rain-Thunderstorm,78
2014-8-4,85,74,63,63,61,58,94,68,40,30.09,30.05,29.99,10,10,5,13,8,,0.02,2,Rain,90
2014-8-5,77,71,64,66,61,59,87,73,60,30.04,30.02,30.00,10,10,10,10,7,,0.03,4,Rain,93
2014-8-6,86,76,65,64,62,58,90,75,40,30.00,29.96,29.88,10,10,7,12,7,,T,6,,79
2014-8-7,98,78,58,62,55,42,93,58,16,29.94,29.86,29.78,10,9,6,10,5,21,0.00,1,,115
2014-8-8,99,78,57,60,53,41,87,46,14,29.89,29.85,29.79,10,10,10,12,5,22,0.00,0,,125
2014-8-9,87,72,56,60,53,42,84,50,25,30.18,30.01,29.84,10,10,10,28,9,32,0.00,1,,5
2014-8-10,85,67,49,49,45,42,77,48,22,30.27,30.21,30.16,10,10,10,10,1,,0.00,0,,101
2014-8-11,93,73,52,50,47,44,75,43,20,30.22,30.14,30.04,10,10,10,13,7,,0.00,1,,90
2014-8-12,97,77,56,57,50,45,72,43,18,30.07,29.97,29.87,10,10,10,13,5,,0.00,0,,59
2014-8-13,90,74,57,61,56,53,81,52,31,29.94,29.89,29.84,10,10,10,22,5,,T,1,Rain,71
2014-8-14,97,82,67,67,62,56,84,54,30,29.88,29.82,29.75,10,8,1,24,8,37,0.72,3,Rain-Thunderstorm,134
2014-8-15,84,78,71,70,62,55,78,63,45,29.97,29.87,29.81,10,10,10,23,8,33,0.00,2,Thunderstorm,244
2014-8-16,87,74,61,60,56,50,87,61,29,29.96,29.92,29.87,10,10,8,14,7,,0.02,2,Rain,235
2014-8-17,85,72,59,60,56,53,86,63,33,29.93,29.88,29.84,10,10,8,26,6,43,0.04,3,Rain,256
2014-8-18,89,75,60,61,54,45,90,58,22,29.93,29.86,29.78,10,10,6,13,8,23,0.00,1,,260
2014-8-19,97,77,56,55,49,39,80,45,15,29.78,29.65,29.55,10,10,8,13,4,20,0.00,1,,126
2014-8-20,82,71,59,62,54,45,75,55,39,29.80,29.66,29.53,10,10,10,12,5,,T,2,Rain,347
2014-8-21,76,66,56,60,58,53,93,81,53,30.05,29.96,29.81,10,6,0,22,5,28,1.55,7,Fog-Rain-Thunderstorm,8
2014-8-22,71,66,60,58,56,54,90,78,61,30.12,30.09,30.04,10,9,4,18,9,24,0.46,8,Rain,59
2014-8-23,62,58,53,57,53,51,94,89,78,30.09,29.99,29.84,10,4,2,29,21,37,2.83,8,Rain,55
2014-8-24,59,55,50,52,49,45,93,84,74,29.95,29.76,29.68,10,6,2,23,16,30,0.85,8,Rain,359
2014-8-25,61,54,46,47,44,42,87,76,58,30.18,30.09,29.97,10,10,9,15,11,21,0.01,6,Rain,299
2014-8-26,77,59,40,52,44,37,89,63,31,30.19,30.13,30.06,10,10,10,6,2,,0.00,0,,35
2014-8-27,89,69,48,58,51,46,90,61,28,30.09,29.98,29.88,10,10,10,9,4,,0.00,1,,115
2014-8-28,90,71,52,59,53,49,89,57,24,29.88,29.83,29.76,10,10,10,24,4,31,T,1,,263
2014-8-29,74,66,57,57,53,47,87,67,38,30.02,29.93,29.84,10,10,4,36,16,46,0.12,5,Rain-Thunderstorm,12
2014-8-30,68,62,56,60,56,50,90,81,70,29.89,29.76,29.68,10,9,2,12,5,,0.15,3,Rain,67
2014-8-31,76,64,51,56,50,39,93,70,27,29.79,29.71,29.67,10,8,1,20,5,25,0.02,1,,268